Terug naar catalogus

COSMOS 489

ActiefMilitairLEO
NORAD 6019·PAYLOAD·🇷🇺 Russia

Gelanceerd May 6, 1972 vanaf Plesetsk Cosmodrome

Loading…

Volgende Passages (komende 24 uur)

TLE

VersSource: Space-Track

Epoch: Sep 14, 2026, 04:38 UTC

1 06019U 72035A   26257.19332348  .00000016  00000-0  39870-4 0  9996
2 06019  74.0212 178.1876 0023281  97.6795  54.2103 13.76157576729125

Volg COSMOS 489 in realtime met AllMySat

Download on the App Store